GW6984 Weather Reports


time (UTC)temp
C
wind
direction
speed
KPH
gust
KPH
rain 1hr
cm
rain 24hr
cm
rain mn
cm
humidity
%
barometer
mb
20260505035126 15 138 1.6 1.6 0.00 0.00 0.00 66 1010.8
20260505034623 15 143 1.6 3.2 0.00 0.00 0.00 65 1010.8
20260505034120 15 151 0.0 1.6 0.00 0.00 0.00 65 1010.9
20260505033617 15 150 1.6 1.6 0.00 0.00 0.00 65 1010.7
20260505033115 15 134 0.0 1.6 0.00 0.00 0.00 65 1010.7
20260505032613 15 137 0.0 1.6 0.00 0.00 0.00 63 1010.9
20260505032109 15 129 1.6 1.6 0.00 0.00 0.00 63 1010.8
20260505031606 15 141 0.0 0.0 0.00 0.00 0.00 62 1010.7
20260505031102 15 134 1.6 1.6 0.00 0.00 0.00 61 1010.7
20260505030600 16 133 0.0 3.2 0.00 0.00 0.00 60 1010.7
20260505030055 16 147 4.8 4.8 0.00 0.00 0.00 59 1010.8
20260505025551 16 161 3.2 9.7 0.00 0.00 0.00 58 1010.7
20260505025050 16 193 6.4 12.9 0.00 0.00 0.00 58 1010.7
20260505024547 16 169 3.2 9.7 0.00 0.00 0.00 58 1010.6
20260505024044 16 175 3.2 4.8 0.00 0.00 0.00 58 1010.7
20260505023541 16 172 4.8 4.8 0.00 0.00 0.00 58 1010.7
20260505023039 16 173 4.8 6.4 0.00 0.00 0.00 58 1010.8
20260505022536 16 175 4.8 6.4 0.00 0.00 0.00 57 1010.8
20260505022033 16 189 4.8 4.8 0.00 0.00 0.00 58 1010.6
20260505021530 16 171 3.2 4.8 0.00 0.00 0.00 58 1010.7
20260505021027 16 184 4.8 4.8 0.00 0.00 0.00 57 1010.9
20260505020526 16 189 3.2 3.2 0.00 0.00 0.00 57 1010.7
20260505020024 16 181 3.2 4.8 0.00 0.00 0.00 57 1010.8
20260505015521 16 157 1.6 3.2 0.00 0.00 0.00 57 1010.7
20260505015018 16 183 3.2 3.2 0.00 0.00 0.00 57 1010.7
20260505014514 16 150 3.2 1.6 0.00 0.00 0.00 57 1010.6
20260505014012 16 161 1.6 3.2 0.00 0.00 0.00 57 1010.7
20260505013509 16 148 1.6 1.6 0.00 0.00 0.00 57 1010.4
20260505013006 16 147 0.0 0.0 0.00 0.00 0.00 56 1010.6
20260505012504 16 160 0.0 1.6 0.00 0.00 0.00 54 1010.3
20260505012001 16 150 1.6 4.8 0.00 0.00 0.00 53 1010.4
20260505011456 16 162 3.2 3.2 0.00 0.00 0.00 53 1010.3
20260505010954 16 170 1.6 3.2 0.00 0.00 0.00 53 1010.3
20260505010449 17 161 0.0 1.6 0.00 0.00 0.00 52 1010.2
20260505005945 17 162 0.0 1.6 0.00 0.00 0.00 52 1010.3
20260505005442 17 169 3.2 3.2 0.00 0.00 0.00 51 1010.3
20260505004940 17 162 1.6 3.2 0.00 0.00 0.00 51 1010.3
20260505004436 17 157 3.2 4.8 0.00 0.00 0.00 49 1010.3
20260505003933 17 159 0.0 4.8 0.00 0.00 0.00 48 1010.2
20260505003431 17 175 3.2 3.2 0.00 0.00 0.00 48 1010.2
20260505002927 17 164 3.2 4.8 0.00 0.00 0.00 47 1010.2
20260505002423 18 170 3.2 6.4 0.00 0.00 0.00 47 1010.1
20260505001922 18 149 4.8 6.4 0.00 0.00 0.00 45 1010.1
20260505001419 18 164 4.8 6.4 0.00 0.00 0.00 45 1010.1
20260505000916 18 178 4.8 12.9 0.00 0.00 0.00 43 1010.3
20260505000414 18 180 4.8 9.7 0.00 0.00 0.00 43 1010.1
20260504235910 18 198 9.7 12.9 0.00 0.00 0.00 42 1010.0
20260504235408 19 166 9.7 12.9 0.00 0.00 0.00 41 1010.1
20260504234903 19 161 9.7 16.1 0.00 0.00 0.00 41 1010.0
20260504234401 19 178 4.8 9.7 0.00 0.00 0.00 41 1010.2
20260504233857 20 175 8.0 9.7 0.00 0.00 0.00 40 1010.1
20260504233353 20 205 11.3 12.9 0.00 0.00 0.00 40 1010.2
20260504232850 20 203 11.3 14.5 0.00 0.00 0.00 40 1009.9
20260504232347 20 170 8.0 12.9 0.00 0.00 0.00 40 1010.1
20260504231844 20 192 12.9 17.7 0.00 0.00 0.00 39 1010.2
20260504231341 20 234 12.9 20.9 0.00 0.00 0.00 39 1010.1
20260504230837 20 177 9.7 12.9 0.00 0.00 0.00 40 1010.0
20260504230335 20 177 9.7 12.9 0.00 0.00 0.00 39 1010.0
20260504225833 20 166 4.8 12.9 0.00 0.00 0.00 40 1010.1
20260504225329 20 177 8.0 12.9 0.00 0.00 0.00 40 1010.0
20260504224827 20 187 9.7 17.7 0.00 0.00 0.00 39 1010.1
20260504224323 20 168 6.4 16.1 0.00 0.00 0.00 38 1010.1
20260504223820 20 170 6.4 16.1 0.00 0.00 0.00 39 1010.0
20260504223316 20 200 9.7 11.3 0.00 0.00 0.00 38 1010.0
20260504222813 21 186 12.9 16.1 0.00 0.00 0.00 37 1010.0
20260504222309 21 188 8.0 12.9 0.00 0.00 0.00 38 1010.0
20260504221808 21 176 8.0 16.1 0.00 0.00 0.00 38 1009.9
20260504221304 21 193 6.4 14.5 0.00 0.00 0.00 37 1009.9
20260504220801 21 169 6.4 16.1 0.00 0.00 0.00 38 1010.0
20260504220258 21 168 14.5 20.9 0.00 0.00 0.00 36 1009.8
20260504215755 21 147 14.5 17.7 0.00 0.00 0.00 36 1009.9
20260504215251 21 164 14.5 17.7 0.00 0.00 0.00 36 1009.9
20260504214747 21 211 8.0 14.5 0.00 0.00 0.00 35 1009.9
20260504214244 21 179 8.0 11.3 0.00 0.00 0.00 36 1010.0
20260504213741 22 197 11.3 16.1 0.00 0.00 0.00 35 1010.1
20260504213237 22 200 8.0 17.7 0.00 0.00 0.00 34 1009.9
20260504212734 22 178 12.9 24.1 0.00 0.00 0.00 34 1010.0
20260504212231 22 149 11.3 16.1 0.00 0.00 0.00 33 1009.9
20260504211729 22 156 19.3 25.7 0.00 0.00 0.00 33 1010.0
20260504211224 22 150 9.7 20.9 0.00 0.00 0.00 33 1009.9
20260504210722 22 176 8.0 20.9 0.00 0.00 0.00 33 1010.0
20260504210219 22 172 8.0 14.5 0.00 0.00 0.00 34 1010.1
20260504205716 22 203 9.7 16.1 0.00 0.00 0.00 34 1009.9
20260504205214 22 184 4.8 11.3 0.00 0.00 0.00 34 1010.0
20260504204712 22 189 9.7 17.7 0.00 0.00 0.00 34 1010.1
20260504204210 22 179 11.3 22.5 0.00 0.00 0.00 35 1010.3
20260504203709 23 194 9.7 12.9 0.00 0.00 0.00 34 1010.0
20260504203206 22 162 4.8 16.1 0.00 0.00 0.00 36 1010.1
20260504202706 22 159 14.5 20.9 0.00 0.00 0.00 33 1010.1
20260504202203 22 176 6.4 20.9 0.00 0.00 0.00 34 1010.3
20260504201700 22 175 4.8 14.5 0.00 0.00 0.00 36 1010.4
20260504201158 22 48 9.7 16.1 0.00 0.00 0.00 34 1010.3
20260504200655 23 156 3.2 17.7 0.00 0.00 0.00 34 1010.5
20260504200151 22 166 4.8 14.5 0.00 0.00 0.00 35 1010.6
20260504195647 22 178 8.0 14.5 0.00 0.00 0.00 33 1010.8
20260504195143 22 196 9.7 16.1 0.00 0.00 0.00 34 1010.9
20260504194640 22 170 6.4 12.9 0.00 0.00 0.00 33 1010.9
20260504194137 22 133 11.3 17.7 0.00 0.00 0.00 33 1010.8
20260504193633 22 183 12.9 16.1 0.00 0.00 0.00 33 1010.9
20260504193131 22 189 9.7 14.5 0.00 0.00 0.00 34 1011.0
20260504192629 22 207 8.0 12.9 0.00 0.00 0.00 36 1011.3
20260504192127 22 215 14.5 22.5 0.00 0.00 0.00 33 1011.4
20260504191625 22 164 12.9 17.7 0.00 0.00 0.00 33 1011.4
20260504191121 22 218 9.7 24.1 0.00 0.00 0.00 34 1011.3
20260504190617 22 179 8.0 22.5 0.00 0.00 0.00 34 1011.5
20260504190114 22 181 8.0 14.5 0.00 0.00 0.00 34 1011.5
20260504185610 22 192 9.7 14.5 0.00 0.00 0.00 35 1011.7
20260504185107 22 218 9.7 16.1 0.00 0.00 0.00 32 1011.7
20260504184603 22 234 9.7 20.9 0.00 0.00 0.00 32 1011.7
20260504184058 22 194 11.3 22.5 0.00 0.00 0.00 35 1011.7
20260504183555 22 229 9.7 14.5 0.00 0.00 0.00 34 1011.8
20260504183053 22 169 9.7 14.5 0.00 0.00 0.00 31 1011.7
20260504182550 22 204 9.7 22.5 0.00 0.00 0.00 34 1011.7
20260504182048 22 229 4.8 17.7 0.00 0.00 0.00 34 1011.9
20260504181544 22 181 9.7 12.9 0.00 0.00 0.00 32 1011.8
20260504181042 22 111 8.0 12.9 0.00 0.00 0.00 33 1011.9
20260504180541 22 229 9.7 14.5 0.00 0.00 0.00 34 1012.1
20260504180040 22 212 9.7 16.1 0.00 0.00 0.00 31 1012.0
20260504175537 23 170 6.4 6.4 0.00 0.00 0.00 31 1012.1
20260504175033 22 188 4.8 6.4 0.00 0.00 0.00 31 1012.1
20260504174531 22 136 19.3 24.1 0.00 0.00 0.00 30 1012.1
20260504174028 22 250 1.6 6.4 0.00 0.00 0.00 30 1012.2
20260504173525 22 214 17.7 24.1 0.00 0.00 0.00 30 1012.5
20260504173022 22 165 9.7 16.1 0.00 0.00 0.00 32 1012.5
20260504172518 22 126 8.0 12.9 0.00 0.00 0.00 33 1012.6
20260504172015 22 214 8.0 9.7 0.00 0.00 0.00 30 1012.5
20260504171512 21 180 3.2 9.7 0.00 0.00 0.00 32 1012.6
20260504171009 22 210 6.4 17.7 0.00 0.00 0.00 31 1012.8
20260504170504 21 159 0.0 4.8 0.00 0.00 0.00 29 1012.7
20260504160425 21 132 4.8 11.3 0.00 0.00 0.00 33 1013.5
20260504150848 19 173 6.4 12.9 0.00 0.00 0.00 35 1014.2
20260504150345 19 173 6.4 14.5 0.00 0.00 0.00 38 1014.0
20260504141315 17 211 3.2 4.8 0.00 0.00 0.00 41 1014.4
20260504140812 17 181 6.4 11.3 0.00 0.00 0.00 42 1014.3
20260504140307 17 204 6.4 9.7 0.00 0.00 0.00 41 1014.3
20260504130736 15 186 6.4 12.9 0.00 0.00 0.00 48 1014.5
20260504130232 15 168 3.2 9.7 0.00 0.00 0.00 48 1014.7
20260504120156 11 165 3.2 4.8 0.00 0.00 0.00 60 1014.8
20260504110623 8 117 0.0 0.0 0.00 0.00 0.00 67 1015.0
20260504110119 7 117 0.0 0.0 0.00 0.00 0.00 69 1015.0
20260504100545 6 116 0.0 0.0 0.00 0.00 0.00 72 1015.1
20260504081938 7 189 0.0 0.0 0.00 0.00 0.00 64 1015.5
20260504081436 7 174 0.0 1.6 0.00 0.00 0.00 65 1015.3
20260504080931 7 185 0.0 0.0 0.00 0.00 0.00 61 1015.1
20260504080428 7 196 1.6 3.2 0.00 0.00 0.00 62 1015.2
20260504070356 8 202 0.0 1.6 0.00 0.00 0.00 56 1015.2
20260504050743 5 347 3.2 3.2 0.00 0.00 0.00 74 1015.6
20260504050241 5 345 3.2 3.2 0.00 0.00 0.00 74 1015.5
20260504045738 5 16 3.2 3.2 0.00 0.00 0.00 71 1015.7
20260504045233 5 105 0.0 0.0 0.00 0.00 0.00 73 1015.8
20260504044731 5 347 1.6 3.2 0.00 0.00 0.00 73 1015.7
20260504044228 5 347 0.0 1.6 0.00 0.00 0.00 73 1015.6
20260504043725 5 156 1.6 1.6 0.00 0.00 0.00 70 1015.8
20260504043222 5 156 0.0 0.0 0.00 0.00 0.00 71 1015.6
20260504042720 5 157 1.6 3.2 0.00 0.00 0.00 71 1015.7
20260504042216 5 31 1.6 1.6 0.00 0.00 0.00 68 1015.5
20260504041712 5 32 0.0 0.0 0.00 0.00 0.00 69 1015.4
20260504041208 5 32 0.0 0.0 0.00 0.00 0.00 65 1015.5
20260504040705 6 32 0.0 0.0 0.00 0.00 0.00 69 1015.4
20260504040202 6 357 1.6 1.6 0.00 0.00 0.00 65 1015.3
20260504035658 6 355 3.2 3.2 0.00 0.00 0.00 65 1015.4